When you browse on this site, cookies collect data to enhance your experience and personalize the content and advertising you see.
Visit our Privacy Policy to learn more. By continuing to use the site, you agree to this use of cookies and data.
  • In Switzerland
  • List of Countries
  • For 7 days
  • Water Temperature
  • Weather Map
  • Weather Widgets
  • user-avatar
    Login

    Hourly Weather Eisenstadt

    Today, 25 May, Monday

    Time Temperature Precipitation Wind Pressure Humidity
    00:00 +8°C° 0 mm 2 mps 730 mmHg 76%
    01:00 +8°C° 0 mm 1 mps 730 mmHg 80%
    02:00 +9°C° 0.1 mm 1 mps 730 mmHg 80%
    03:00 +10°C° 0.1 mm 1 mps 730 mmHg 80%
    04:00 +10°C° 0.1 mm 1 mps 730 mmHg 79%
    05:00 +11°C° 0.5 mm 1 mps 730 mmHg 82%
    06:00 +10°C° 0.5 mm 2 mps 730 mmHg 85%
    07:00 +10°C° 0 mm 2 mps 730 mmHg 91%
    08:00 +10°C° 1 mm 2 mps 729 mmHg 88%
    09:00 +11°C° 1 mm 3 mps 729 mmHg 86%
    10:00 +11°C° 1 mm 3 mps 729 mmHg 84%
    11:00 +12°C° 0.6 mm 3 mps 729 mmHg 80%
    12:00 +13°C° 0.6 mm 3 mps 729 mmHg 77%
    13:00 +13°C° 0.6 mm 4 mps 728 mmHg 73%
    14:00 +13°C° 0.8 mm 4 mps 728 mmHg 76%
    15:00 +13°C° 0.8 mm 4 mps 728 mmHg 78%
    16:00 +12°C° 0.8 mm 4 mps 728 mmHg 81%
    17:00 +12°C° 0.6 mm 4 mps 728 mmHg 83%
    18:00 +11°C° 0.6 mm 4 mps 728 mmHg 86%
    19:00 +10°C° 0.6 mm 3 mps 728 mmHg 88%
    20:00 +10°C° 0 mm 4 mps 729 mmHg 89%
    21:00 +8°C° 0 mm 4 mps 729 mmHg 89%
    22:00 +7°C° 0 mm 4 mps 730 mmHg 89%
    23:00 +7°C° 0 mm 4 mps 730 mmHg 90%

    Tomorrow, 26 May, Tuesday

    Time Temperature Precipitation Wind Pressure Humidity
    00:00 +7°C° 0 mm 4 mps 730 mmHg 90%
    01:00 +6°C° 0 mm 4 mps 730 mmHg 90%
    02:00 +6°C° 0 mm 4 mps 730 mmHg 90%
    03:00 +6°C° 0 mm 4 mps 730 mmHg 90%
    04:00 +6°C° 0 mm 4 mps 730 mmHg 90%
    05:00 +7°C° 0 mm 4 mps 730 mmHg 86%
    06:00 +9°C° 0 mm 5 mps 730 mmHg 81%
    07:00 +10°C° 0 mm 6 mps 731 mmHg 76%
    08:00 +10°C° 0.1 mm 6 mps 731 mmHg 75%
    09:00 +10°C° 0.1 mm 6 mps 731 mmHg 73%
    10:00 +12°C° 0.1 mm 5 mps 731 mmHg 72%
    11:00 +12°C° 0.3 mm 5 mps 730 mmHg 72%
    12:00 +12°C° 0.3 mm 5 mps 730 mmHg 73%
    13:00 +13°C° 0.3 mm 5 mps 730 mmHg 73%
    14:00 +13°C° 0.2 mm 5 mps 730 mmHg 69%
    15:00 +14°C° 0.2 mm 6 mps 730 mmHg 65%
    16:00 +15°C° 0.2 mm 6 mps 730 mmHg 61%
    17:00 +14°C° 0 mm 6 mps 730 mmHg 66%
    18:00 +13°C° 0 mm 5 mps 730 mmHg 71%
    19:00 +12°C° 0 mm 5 mps 730 mmHg 75%
    20:00 +11°C° 0 mm 4 mps 730 mmHg 77%
    21:00 +10°C° 0 mm 4 mps 731 mmHg 80%
    22:00 +8°C° 0 mm 4 mps 731 mmHg 82%
    23:00 +8°C° 0 mm 4 mps 731 mmHg 83%

    Day after tomorrow, 27 May, Wednesday

    Time Temperature Precipitation Wind Pressure Humidity
    00:00 +8°C° 0 mm 4 mps 731 mmHg 83%
    01:00 +8°C° 0 mm 4 mps 731 mmHg 83%
    02:00 +8°C° 0 mm 4 mps 731 mmHg 83%
    03:00 +8°C° 0 mm 4 mps 731 mmHg 82%
    04:00 +8°C° 0 mm 4 mps 731 mmHg 81%
    05:00 +9°C° 0 mm 5 mps 731 mmHg 76%
    06:00 +10°C° 0 mm 5 mps 731 mmHg 72%
    07:00 +13°C° 0 mm 6 mps 732 mmHg 67%
    08:00 +14°C° 0 mm 6 mps 731 mmHg 62%
    09:00 +15°C° 0 mm 6 mps 731 mmHg 57%
    10:00 +16°C° 0 mm 6 mps 731 mmHg 52%
    11:00 +17°C° 0 mm 6 mps 731 mmHg 50%
    12:00 +19°C° 0 mm 6 mps 731 mmHg 47%
    13:00 +20°C° 0 mm 6 mps 730 mmHg 45%
    14:00 +20°C° 0 mm 5 mps 730 mmHg 47%
    15:00 +19°C° 0 mm 5 mps 730 mmHg 49%
    16:00 +19°C° 0 mm 5 mps 729 mmHg 51%
    17:00 +18°C° 0 mm 4 mps 729 mmHg 58%
    18:00 +16°C° 0 mm 3 mps 729 mmHg 65%
    19:00 +14°C° 0 mm 3 mps 729 mmHg 72%
    20:00 +13°C° 0 mm 3 mps 729 mmHg 75%
    21:00 +13°C° 0 mm 2 mps 729 mmHg 77%
    22:00 +10°C° 0 mm 2 mps 729 mmHg 79%
    23:00 +10°C° 0 mm 2 mps 729 mmHg 78%

    28 May, Thursday

    Time Temperature Precipitation Wind Pressure Humidity
    00:00 +10°C° 0 mm 2 mps 729 mmHg 77%
    01:00 +10°C° 0 mm 2 mps 729 mmHg 75%
    02:00 +10°C° 0.1 mm 2 mps 729 mmHg 77%
    03:00 +12°C° 0.1 mm 2 mps 728 mmHg 79%
    04:00 +12°C° 0.1 mm 2 mps 728 mmHg 81%
    05:00 +12°C° 0.2 mm 2 mps 728 mmHg 82%
    06:00 +13°C° 0.2 mm 2 mps 728 mmHg 83%
    07:00 +13°C° 0.2 mm 2 mps 728 mmHg 84%
    08:00 +12°C° 0.4 mm 3 mps 728 mmHg 84%
    09:00 +12°C° 0.4 mm 3 mps 728 mmHg 83%
    10:00 +12°C° 0.4 mm 4 mps 728 mmHg 83%
    11:00 +14°C° 0.1 mm 4 mps 728 mmHg 72%
    12:00 +16°C° 0.1 mm 5 mps 728 mmHg 62%
    13:00 +17°C° 0.1 mm 5 mps 727 mmHg 51%
    14:00 +17°C° 0 mm 5 mps 727 mmHg 49%
    15:00 +17°C° 0 mm 6 mps 727 mmHg 48%
    16:00 +17°C° 0 mm 6 mps 726 mmHg 46%
    17:00 +16°C° 0 mm 5 mps 726 mmHg 52%
    18:00 +14°C° 0 mm 4 mps 726 mmHg 58%
    19:00 +13°C° 0 mm 3 mps 726 mmHg 64%
    20:00 +11°C° 0 mm 3 mps 726 mmHg 65%
    21:00 +10°C° 0 mm 3 mps 727 mmHg 67%
    22:00 +9°C° 0 mm 3 mps 727 mmHg 68%
    23:00 +9°C° 0 mm 3 mps 727 mmHg 71%

    29 May, Friday

    Time Temperature Precipitation Wind Pressure Humidity
    00:00 +8°C° 0 mm 3 mps 726 mmHg 73%
    01:00 +7°C° 0 mm 2 mps 726 mmHg 76%
    02:00 +7°C° 0 mm 2 mps 726 mmHg 76%
    03:00 +7°C° 0 mm 2 mps 726 mmHg 76%
    04:00 +7°C° 0 mm 2 mps 725 mmHg 76%
    05:00 +8°C° 0 mm 2 mps 725 mmHg 71%
    06:00 +10°C° 0 mm 3 mps 725 mmHg 66%
    07:00 +12°C° 0 mm 3 mps 725 mmHg 62%
    08:00 +13°C° 0 mm 3 mps 725 mmHg 58%
    09:00 +14°C° 0 mm 3 mps 725 mmHg 54%
    10:00 +16°C° 0 mm 3 mps 725 mmHg 50%
    11:00 +16°C° 0 mm 3 mps 724 mmHg 49%
    12:00 +17°C° 0 mm 2 mps 724 mmHg 47%
    13:00 +17°C° 0 mm 2 mps 723 mmHg 46%
    14:00 +17°C° 0.2 mm 2 mps 723 mmHg 51%
    15:00 +16°C° 0.2 mm 1 mps 722 mmHg 55%
    16:00 +16°C° 0.2 mm 1 mps 722 mmHg 60%
    17:00 +15°C° 0.4 mm 1 mps 722 mmHg 67%
    18:00 +14°C° 0.4 mm 1 mps 722 mmHg 75%
    19:00 +12°C° 0.4 mm 1 mps 722 mmHg 82%
    20:00 +10°C° 0.2 mm 2 mps 722 mmHg 84%
    21:00 +10°C° 0.2 mm 2 mps 722 mmHg 87%
    22:00 +9°C° 0.2 mm 2 mps 722 mmHg 89%
    23:00 +9°C° 0.5 mm 2 mps 722 mmHg 90%

    30 May, Saturday

    Time Temperature Precipitation Wind Pressure Humidity
    00:00 +8°C° 0.5 mm 2 mps 722 mmHg 91%
    01:00 +8°C° 0.5 mm 2 mps 722 mmHg 93%
    02:00 +8°C° 0.7 mm 2 mps 722 mmHg 93%
    03:00 +8°C° 0.7 mm 2 mps 722 mmHg 93%
    04:00 +7°C° 0.7 mm 2 mps 722 mmHg 94%
    05:00 +8°C° 0.1 mm 2 mps 723 mmHg 91%
    06:00 +8°C° 0.1 mm 3 mps 723 mmHg 89%
    07:00 +8°C° 0.1 mm 3 mps 724 mmHg 86%
    08:00 +9°C° 0 mm 3 mps 724 mmHg 77%
    09:00 +10°C° 0 mm 4 mps 724 mmHg 68%
    10:00 +12°C° 0 mm 4 mps 724 mmHg 59%
    11:00 +12°C° 0.1 mm 4 mps 724 mmHg 57%
    12:00 +13°C° 0.1 mm 4 mps 724 mmHg 55%
    13:00 +13°C° 0.1 mm 4 mps 724 mmHg 53%
    14:00 +13°C° 0.4 mm 4 mps 724 mmHg 56%
    15:00 +13°C° 0.4 mm 4 mps 723 mmHg 58%
    16:00 +13°C° 0.4 mm 4 mps 723 mmHg 61%
    17:00 +12°C° 0.2 mm 3 mps 723 mmHg 67%
    18:00 +12°C° 0.2 mm 2 mps 723 mmHg 74%
    19:00 +10°C° 0.2 mm 2 mps 722 mmHg 80%
    20:00 +9°C° 0.1 mm 2 mps 723 mmHg 83%
    21:00 +9°C° 0.1 mm 2 mps 723 mmHg 85%
    22:00 +8°C° 0.1 mm 2 mps 723 mmHg 87%
    23:00 +8°C° 0.7 mm 2 mps 723 mmHg 89%
    Show more